This is the latest recevied weather packets stored in our database for station/object VK4AB-13. If no packets are shown the sender has not sent any weather packets the latest 1 day(s).
| Time | Temp. | Humidity | Pressure | Rain* | Wind** | Luminosity | Snow |
|---|---|---|---|---|---|---|---|
| 1778033925 | 26.67° C | 65% | 1015.7 hPa | 0 mm | 0.89 m/s, 171° | 188 W/m² | - |
| 1778033625 | 26.67° C | 65% | 1015.8 hPa | 0 mm | 0.89 m/s, 171° | 199 W/m² | - |
| 1778033325 | 26.67° C | 65% | 1015.8 hPa | 0 mm | 0.89 m/s, 164° | 283 W/m² | - |
| 1778033025 | 26.11° C | 65% | 1015.9 hPa | 0 mm | 0.45 m/s, 162° | 229 W/m² | - |
| 1778032725 | 26.11° C | 65% | 1016 hPa | 0 mm | 0.45 m/s, 162° | 316 W/m² | - |
| 1778032425 | 26.11° C | 65% | 1016.1 hPa | 0 mm | 0.45 m/s, 160° | 236 W/m² | - |
| 1778032125 | 26.11° C | 66% | 1016.2 hPa | 0 mm | 0 m/s | 287 W/m² | - |
| 1778031825 | 26.11° C | 66% | 1016.3 hPa | 0 mm | 0.45 m/s, 155° | 306 W/m² | - |
| 1778031525 | 26.11° C | 66% | 1016.3 hPa | 0 mm | 0.45 m/s, 160° | 190 W/m² | - |
| 1778031225 | 26.11° C | 66% | 1016.4 hPa | 0 mm | 0.45 m/s, 159° | 137 W/m² | - |
| 1778030925 | 26.11° C | 66% | 1016.5 hPa | 0 mm | 0.45 m/s, 159° | 121 W/m² | - |
| 1778030625 | 26.11° C | 67% | 1016.6 hPa | 0 mm | 0.89 m/s, 159° | 127 W/m² | - |
| 1778030325 | 26.11° C | 66% | 1016.6 hPa | 0 mm | 0.89 m/s, 158° | 684 W/m² | - |
| 1778030025 | 26.11° C | 67% | 1016.6 hPa | 0 mm | 0.45 m/s, 179° | 782 W/m² | - |
| 1778029725 | 26.11° C | 67% | 1016.7 hPa | 0 mm | 0.45 m/s, 179° | 197 W/m² | - |
| 1778029426 | 26.11° C | 67% | 1016.8 hPa | 0 mm | 0.45 m/s, 179° | 199 W/m² | - |
| 1778029125 | 26.11° C | 67% | 1016.8 hPa | 0 mm | 0.89 m/s, 182° | 183 W/m² | - |
| 1778028825 | 26.11° C | 67% | 1016.8 hPa | 0 mm | 0.89 m/s, 182° | 181 W/m² | - |
| 1778028525 | 26.67° C | 69% | 1016.9 hPa | 0 mm | 0.89 m/s, 183° | 204 W/m² | - |
| 1778028225 | 26.67° C | 69% | 1016.9 hPa | 0 mm | 0.45 m/s, 183° | 821 W/m² | - |
| 1778027926 | 26.11° C | 70% | 1017 hPa | 0 mm | 0.45 m/s, 178° | 847 W/m² | - |
| 1778027625 | 25° C | 73% | 1017 hPa | 0 mm | 0.45 m/s, 179° | 816 W/m² | - |
| 1778027325 | 25° C | 75% | 1017.1 hPa | 0 mm | 0.45 m/s, 179° | 722 W/m² | - |
| 1778027026 | 24.44° C | 74% | 1017.2 hPa | 0 mm | 0.45 m/s, 180° | 211 W/m² | - |
| 1778026726 | 25° C | 73% | 1017.3 hPa | 0 mm | 0.45 m/s, 180° | 155 W/m² | - |
* Rain latest hour (hover to see other rain measurements)
** Current wind speed in m/s (hover to see current wind gust speed)